Boston, MA

2:11 AM EDT on September 26, 2016 (GMT -0400)
East Milton

Weather History for KMQE - April, 2014

Change the Weather History Date:

Saturday, April 5, 2014

  Actual Average (KBOS) Record (KBOS)
Temperature  
Mean Temperature 43 °F 44 °F  
Max Temperature 52 °F 52 °F 84 °F (1928)
Min Temperature 35 °F 37 °F 11 °F (1874)
Degree Days  
Heating Degree Days 22 21  
Month to date heating degree days 107  
Since 1 July heating degree days 4978  
Cooling Degree Days 0 0  
Month to date cooling degree days 0  
Year to date cooling degree days 0  
Moisture  
Dew Point 33 °F    
Average Humidity 76    
Maximum Humidity 100    
Minimum Humidity 44    
Precipitation  
Precipitation 0.23 in 0.14 in 2.52 in (1987)
Month to date precipitation 0.69  
Year to date precipitation 11.62  
Sea Level Pressure  
Sea Level Pressure 29.79 in    
Wind  
Wind Speed 15 mph (NW)    
Max Wind Speed 26 mph    
Max Gust Speed 38 mph    
T = Trace of Precipitation, MM = Missing Value Source: NWS Daily Summary

Daily Weather History Graph

Daily Weather History Graph

Search for Another Location

Airport or City:

Trip Planner

Search our weather history database for the weather conditions in past years. The results will help you decide how hot, cold, wet, or windy it might be!

Date:

Astronomy

Apr. 05, 2014 Rise Set
Actual Time 6:20 AM EDT 7:14 PM EDT
Civil Twilight 5:51 AM EDT 7:43 PM EDT
Nautical Twilight 5:18 AM EDT 8:17 PM EDT
Astronomical Twilight 4:42 AM EDT 8:52 PM EDT
Moon 10:21 AM EDT (4/5) 12:25 AM EDT (4/5)
Length of Visible Light 13h 51m
Length of Day
12h 54m
Waxing Crescent, 34% of the Moon is Illuminated
Apr 5
Waxing Crescent
Apr 7
First Quarter
Apr 15
Full
Apr 22
Last Quarter
Apr 29
New

Hourly Weather History & Observations

Time (EDT) Temp. Windchill Dew Point Humidity Pressure Visibility Wind Dir Wind Speed Gust Speed Precip Events Conditions
12:54 AM 36.0 °F 26.3 °F 35.1 °F 97% 29.84 in - East 16.1 mph 21.9 mph 0.03 in   Unknown
1:54 AM 36.0 °F 26.7 °F 35.1 °F 97% 29.83 in - ENE 15.0 mph 18.4 mph 0.03 in   Unknown
2:54 AM 37.0 °F 27.7 °F 36.0 °F 96% 29.77 in - ENE 16.1 mph 20.7 mph 0.02 in   Unknown
3:54 AM 37.0 °F 28.5 °F 37.0 °F 100% 29.74 in - NE 13.8 mph 19.6 mph 0.15 in   Unknown
4:54 AM 37.9 °F 30.5 °F 37.9 °F 100% 29.72 in - NNE 11.5 mph - N/A   Unknown
5:54 AM 37.9 °F 31.5 °F 37.0 °F 97% 29.71 in - NNW 9.2 mph - N/A   Unknown
6:54 AM 37.0 °F 30.4 °F 37.0 °F 100% 29.71 in - NW 9.2 mph - N/A   Unknown
7:54 AM 37.0 °F 30.4 °F 37.0 °F 100% 29.73 in - NW 9.2 mph - N/A   Unknown
8:54 AM 39.0 °F 34.0 °F 37.9 °F 96% 29.74 in - WNW 6.9 mph - N/A   Unknown
9:54 AM 39.9 °F 34.5 °F 39.0 °F 97% 29.74 in - West 8.1 mph - N/A   Unknown
10:54 AM 42.1 °F 34.5 °F 41.0 °F 96% 29.74 in - WNW 15.0 mph 19.6 mph N/A   Unknown
11:54 AM 43.0 °F 37.7 °F 39.9 °F 89% 29.74 in - WNW 9.2 mph 20.7 mph N/A   Unknown
12:54 PM 46.9 °F - 36.0 °F 66% 29.73 in - West 24.2 mph 29.9 mph N/A   Unknown
1:54 PM 51.1 °F - 36.0 °F 56% 29.73 in - WNW 18.4 mph 23.0 mph N/A   Unknown
2:54 PM 48.0 °F - 33.1 °F 56% 29.73 in - WNW 19.6 mph 28.8 mph N/A   Unknown
3:54 PM 48.0 °F - 32.0 °F 54% 29.75 in - West 18.4 mph 28.8 mph N/A   Unknown
4:54 PM 46.9 °F - 30.0 °F 52% 29.77 in - WNW 16.1 mph 26.5 mph N/A   Unknown
5:54 PM 48.0 °F - 27.0 °F 44% 29.78 in - West 26.5 mph 36.8 mph N/A   Unknown
6:54 PM 45.0 °F 36.2 °F 25.0 °F 46% 29.82 in - WNW 24.2 mph 38.0 mph N/A   Unknown
7:54 PM 39.9 °F 29.7 °F 24.1 °F 53% 29.86 in - WNW 23.0 mph 38.0 mph N/A   Unknown
8:54 PM 37.9 °F 29.6 °F 21.9 °F 53% 29.90 in - WNW 13.8 mph 33.4 mph N/A   Unknown
9:54 PM 36.0 °F 25.3 °F 21.9 °F 57% 29.92 in - WNW 19.6 mph 31.1 mph N/A   Unknown
10:54 PM 35.1 °F 25.5 °F 23.0 °F 61% 29.94 in - WNW 15.0 mph 27.6 mph N/A   Unknown
11:54 PM 35.1 °F 25.9 °F 21.9 °F 59% 29.95 in - WNW 13.8 mph 28.8 mph N/A   Unknown